Location: Champseau
(45.8333°N, 1.7667°E)
Time: 09:58:00
(UTC+00:00)

STRAND 1 - Pass Details

Date: 02 December 2021
Orbit: 768 x 780 km, 98.4° (Epoch: 22 January)

Event Time Altitude Azimuth Distance (km) Brightness Sun altitude
Rises 05:18:57 0° 141° (SE) 3,248 ? -19.5°
Reaches altitude 10° 05:21:23 10° 134° (SE) 2,323 ? -19.1°
Maximum altitude 05:26:05 38° 67° (ENE) 1,177 ? -18.3°
Drops below altitude 10° 05:30:47 10° 1° (N) 2,330 ? -17.5°
Sets 05:33:14 0° 354° (N) 3,260 ? -17.1°
